Wind_Speed
5 3 1 1 2 1 0 2 2 2 3 3 1 1 1 1 1 2 1 1 1 1 2 2 3 2 1 2 3 6 4 3 3 4 3 3 10 24 21 20 28 29 30 28 27 25 23 23 23 24 24 26 27 26 26 24 24 24 24 24 23 23 23 22 21 22 21 20 20 19 18 17 16 15 15 15 16 14 14 13 13 13 13 14 14 14 13 13 12 12 11 11 11 11 10 9 8
3 1 2 3 3 0 1 2 3 2 3 3 1 1 2 1 1 2 2 2 1 1 1 2 2 3 2 2 2 4 2 1 1 3 2 9 17 18 17 21 27 29 31 29 29 28 26 25 25 27 27 27 27 27 26 25 25 24 24 24 23 23 23 22 21 22 22 21 20 20 19 18 16 16 15 16 16 13 12 12 11 12 12 14 15 14 13 12 12 11 11 11 11 10 9 9 8
2 1 3 3 2 1 0 3 3 1 4 2 2 2 2 0 2 3 3 3 2 1 1 1 1 2 2 2 0 1 1 1 2 3 6 15 15 13 17 22 26 26 28 29 29 28 27 25 26 28 27 26 25 26 26 25 25 23 23 23 23 23 23 22 22 22 22 21 20 20 19 18 17 15 15 15 14 13 12 11 11 11 11 13 14 13 13 12 11 11 11 10 10 9 9 8 8
2 2 3 2 1 2 2 3 2 2 3 2 1 2 2 2 3 3 4 4 3 1 2 1 1 2 4 2 1 2 1 1 3 3 7 13 13 17 21 24 26 24 24 26 27 28 27 25 25 25 24 25 24 25 25 24 24 23 22 22 23 22 22 23 23 23 22 22 21 20 20 19 17 15 14 14 13 12 12 11 10 10 9 10 12 12 11 11 11 10 10 10 9 9 8 7 7
2 2 2 2 2 1 2 2 1 3 2 2 1 2 2 3 3 2 3 3 2 1 1 1 1 1 3 2 1 2 2 2 4 4 8 11 15 22 23 26 27 24 24 23 25 27 27 24 23 23 23 23 23 24 24 24 23 22 22 22 22 20 21 22 23 23 23 22 22 21 20 19 17 14 13 13 13 12 12 11 11 10 9 8 10 12 11 11 11 10 9 9 9 8 7 6 7
2 1 1 3 2 1 3 3 2 2 1 3 2 3 3 3 2 1 3 3 2 3 3 1 1 2 2 2 3 2 3 4 5 5 10 13 19 25 25 27 26 25 24 22 24 25 26 24 22 23 23 22 22 23 24 24 23 22 21 21 20 19 19 21 22 22 23 23 21 20 20 18 16 15 13 13 13 13 12 11 11 11 11 9 8 11 12 10 9 10 9 8 7 7 6 5 6
3 2 1 4 2 2 4 3 2 0 1 3 2 3 3 2 2 0 3 2 0 1 2 1 1 4 2 1 3 2 4 5 5 8 12 15 21 26 27 26 24 25 25 23 23 25 26 24 23 23 23 22 21 23 23 23 23 21 21 20 19 19 19 20 21 21 22 22 21 20 19 18 16 15 13 13 13 13 13 12 11 11 11 11 10 10 11 10 8 9 9 8 6 6 6 4 4
4 2 0 4 3 3 3 2 1 1 1 2 3 3 3 3 3 1 1 1 1 1 1 2 1 4 1 2 3 2 5 7 8 13 15 18 22 25 27 27 25 25 25 25 23 24 25 23 24 23 23 21 20 22 21 22 21 21 21 20 19 19 19 20 20 21 21 21 20 19 18 17 15 14 13 12 11 12 13 12 12 11 11 11 10 10 10 10 8 8 9 8 6 5 5 4 2
3 3 1 4 2 3 2 1 1 2 2 3 3 3 2 3 4 2 0 0 0 1 3 3 2 4 1 5 4 3 6 11 14 16 18 20 22 24 26 27 27 26 25 26 24 24 24 24 24 24 23 21 20 20 19 19 19 20 20 20 20 19 19 19 19 20 21 20 20 18 17 16 15 14 13 12 11 11 12 12 12 11 11 11 10 9 9 9 8 7 7 6 4 3 3 3 1
3 3 2 3 2 3 3 2 1 1 3 3 3 3 1 2 4 2 2 0 1 1 2 2 5 4 3 4 3 2 7 16 20 19 20 21 21 24 25 25 26 27 26 26 25 24 23 24 23 24 23 20 20 19 18 18 18 19 18 19 19 19 19 18 18 20 21 20 19 17 16 15 15 15 13 12 10 10 11 12 12 11 11 11 10 9 8 8 7 6 6 5 3 1 1 1 1
3 3 2 3 3 2 1 2 3 2 4 3 3 4 1 2 4 2 2 1 2 1 1 3 5 4 4 3 2 5 13 18 21 23 23 22 22 23 24 23 24 25 26 25 24 23 22 22 22 22 21 20 20 19 18 18 17 17 17 17 18 18 18 17 17 19 20 19 18 17 15 14 14 14 14 12 11 10 10 11 12 11 11 11 10 9 8 8 7 5 5 6 3 1 1 1 0
2 3 3 4 2 0 1 1 4 3 4 3 2 4 1 3 3 2 2 2 1 2 1 2 4 3 4 2 1 9 14 15 18 23 25 25 23 23 23 22 22 23 24 24 23 22 20 19 19 19 19 19 19 18 19 18 18 17 16 16 15 16 16 16 17 18 19 18 17 17 16 14 13 14 13 12 11 10 9 9 9 10 11 11 11 10 8 7 7 6 7 8 5 3 2 2 2
2 1 4 3 2 2 1 1 3 3 3 3 3 2 3 3 2 4 4 3 0 3 2 0 4 4 4 1 3 8 10 12 16 21 25 25 23 22 22 22 22 22 23 23 22 21 19 18 18 17 17 17 17 17 18 18 17 16 15 15 15 16 16 16 17 18 19 18 17 17 16 15 14 13 13 12 12 12 11 9 8 7 9 9 10 10 9 8 6 5 7 7 5 3 3 3 3
2 2 3 2 1 2 2 0 3 1 3 4 3 1 3 1 2 4 5 4 1 2 1 1 4 5 3 2 3 4 8 14 17 19 20 21 21 21 22 22 21 22 22 23 22 20 19 19 19 18 18 18 18 17 17 16 16 16 15 15 16 17 17 17 17 18 19 19 19 18 17 16 15 14 13 13 13 12 12 10 9 7 7 7 8 9 9 9 8 6 6 5 4 3 3 4 4
2 2 4 2 2 2 1 1 1 1 3 4 2 3 2 1 2 3 4 4 3 3 1 0 4 3 3 5 4 5 11 18 19 19 18 17 19 19 21 22 21 22 23 24 23 21 20 19 20 20 20 19 19 19 18 17 16 16 17 17 17 18 18 18 18 18 18 19 18 18 17 17 17 16 16 16 15 15 14 12 11 10 9 7 8 9 9 8 8 7 6 5 4 3 4 4 4
2 3 4 2 1 1 2 2 2 1 4 3 0 3 3 3 1 2 3 3 1 1 1 2 2 1 6 6 5 12 19 21 20 19 18 18 17 17 18 20 21 22 23 24 24 22 21 20 19 21 20 19 20 20 20 19 17 16 17 18 18 18 19 19 20 19 18 18 18 17 17 18 19 18 17 15 13 14 16 13 13 13 12 10 9 10 9 7 7 6 6 5 4 4 5 4 3
2 3 4 2 1 2 3 4 3 2 3 2 0 3 4 2 1 1 2 2 1 0 2 2 0 1 6 5 10 21 23 22 21 19 19 18 18 17 17 18 20 21 22 24 24 23 21 21 20 20 20 20 20 20 20 20 19 17 16 17 17 17 17 19 21 20 19 19 17 16 17 18 19 19 16 14 10 11 15 16 17 16 16 15 11 10 9 7 7 7 6 5 5 5 6 5 3
3 3 2 0 2 3 5 6 6 4 3 4 4 4 5 3 3 1 1 2 1 2 3 1 3 1 5 10 20 25 24 23 22 20 19 18 17 16 16 18 20 21 22 23 24 23 22 22 22 21 20 19 19 20 20 20 20 19 18 18 17 17 16 17 19 21 21 20 19 18 19 19 19 19 17 15 12 12 16 19 20 19 17 15 13 11 10 8 7 7 7 6 6 6 6 5 3
2 3 2 3 5 5 5 7 6 3 5 6 5 4 3 3 4 1 1 1 1 1 2 3 4 3 7 14 22 25 24 23 22 20 19 19 18 17 16 17 19 21 23 24 24 25 24 24 24 23 21 20 19 20 20 19 20 20 20 20 19 18 18 17 19 21 21 21 21 20 20 18 18 18 18 17 15 15 18 19 19 18 15 13 13 13 11 8 7 8 8 7 7 7 7 4 2
2 3 2 5 5 4 4 6 7 4 6 8 4 3 2 3 2 1 1 1 1 3 4 1 3 4 9 13 19 24 22 21 21 19 19 19 19 19 18 18 19 21 24 25 25 25 25 25 24 24 23 22 20 20 20 19 20 20 20 20 20 20 20 19 20 21 21 21 21 21 21 18 17 17 16 16 18 19 19 18 18 16 15 14 14 14 12 10 9 9 9 8 7 7 7 4 3
2 3 4 5 3 2 5 6 5 3 6 8 5 4 1 3 2 1 3 3 3 5 6 5 7 9 12 13 17 21 19 19 20 18 17 18 18 19 18 18 19 20 22 23 24 25 25 26 25 24 24 23 22 21 21 20 20 20 20 19 20 20 20 21 20 20 21 21 21 21 21 20 17 16 15 16 19 20 18 18 18 17 16 16 14 14 14 13 12 11 9 7 7 7 8 5 3
1 3 4 3 3 2 4 4 3 4 6 6 6 5 3 2 2 2 5 5 4 5 7 7 7 10 14 14 16 18 16 16 18 17 17 17 17 17 16 16 16 18 21 23 25 25 26 26 25 25 24 23 23 22 21 20 20 20 19 19 19 19 19 20 20 20 19 20 20 21 21 21 19 17 16 17 19 19 19 19 19 18 17 16 16 15 14 14 13 11 9 7 7 8 8 6 4
1 4 4 1 1 2 0 5 3 3 7 7 6 4 4 4 1 3 6 7 6 4 5 7 6 9 15 16 16 15 15 14 16 18 18 17 17 17 17 17 17 19 23 23 25 25 25 26 26 25 25 24 23 22 21 20 20 20 19 18 18 18 18 19 20 20 19 19 20 20 21 22 21 19 18 19 18 18 20 20 20 19 18 17 18 17 15 14 13 11 9 8 9 9 8 6 5
2 2 3 1 1 4 2 6 3 2 4 6 6 3 4 6 2 1 5 11 7 4 2 8 7 8 13 13 14 14 14 15 17 20 20 20 20 19 19 18 18 20 22 22 24 25 25 26 26 26 25 25 24 23 22 21 21 20 19 19 18 18 18 19 19 19 19 19 19 20 20 20 19 19 21 21 20 19 19 20 20 21 20 19 19 18 17 16 15 13 11 10 10 10 9 8 7
2 1 2 2 1 3 3 7 5 3 1 1 6 4 4 6 3 2 7 11 6 2 2 8 8 8 10 11 12 12 12 14 16 18 19 20 20 20 19 18 17 19 21 23 24 25 26 26 26 26 26 26 25 24 23 23 22 21 20 20 19 19 19 19 19 19 19 19 20 19 18 18 19 21 23 23 21 20 20 20 20 21 21 20 20 20 19 18 17 14 12 11 11 11 10 9 9
1 3 3 4 1 3 4 6 5 3 0 1 5 3 3 2 1 2 8 8 3 2 5 7 9 8 9 10 11 11 11 12 15 17 18 20 20 20 21 20 19 21 23 23 23 25 26 26 27 27 27 26 25 25 24 24 23 22 22 22 21 20 20 19 19 20 20 20 21 20 19 20 22 23 22 21 20 19 19 20 20 20 19 18 20 20 18 18 17 14 12 11 11 11 11 10 10
4 4 2 5 2 1 3 5 3 1 3 3 5 3 3 1 1 4 7 3 5 5 5 6 8 8 7 8 9 10 11 13 16 17 16 17 18 20 22 22 22 23 23 22 23 24 24 26 27 27 27 26 26 25 25 25 24 23 23 22 22 21 21 20 20 21 21 21 21 20 20 20 21 21 20 19 18 16 16 17 19 19 18 17 19 17 15 16 15 12 11 11 11 11 11 11 11
2 3 2 5 5 2 2 3 2 0 3 5 5 1 2 3 1 5 5 3 7 7 6 5 7 7 5 6 8 8 8 13 17 16 16 17 20 21 22 24 23 23 23 24 24 24 24 25 25 26 27 27 26 26 25 25 25 24 23 23 22 22 21 21 21 21 21 21 20 19 19 19 17 17 18 18 16 14 13 14 16 17 17 17 17 16 15 15 13 12 11 11 11 11 12 12 11
2 3 2 6 8 5 3 1 2 1 1 4 5 1 3 1 6 6 4 4 6 7 7 5 6 6 5 5 6 6 7 11 15 16 18 21 23 24 24 26 26 24 24 24 23 23 24 24 24 25 26 27 27 26 25 25 24 23 23 22 22 22 22 22 22 21 21 20 19 17 18 18 17 16 17 17 15 14 13 13 14 15 15 15 15 15 16 15 13 12 11 11 11 11 12 11 10
3 3 3 3 7 5 6 0 4 3 1 1 2 2 5 7 8 6 4 5 7 6 7 6 5 5 4 5 4 5 6 9 13 16 20 22 23 24 24 26 26 25 24 24 23 23 23 23 24 24 25 26 26 25 25 25 23 22 22 21 20 21 22 22 22 20 20 20 19 17 18 18 17 16 16 16 15 13 12 12 12 13 12 12 12 13 14 14 13 12 11 11 11 11 11 10 10
2 3 3 3 2 5 8 1 5 4 1 3 3 2 6 9 8 7 5 7 9 7 7 6 5 5 4 4 4 5 6 9 13 17 20 21 22 22 23 24 25 24 23 24 25 24 23 23 24 25 25 25 25 26 25 24 23 22 20 19 19 20 20 21 21 20 20 20 20 19 18 19 18 16 14 15 15 12 11 11 11 11 10 9 10 10 11 12 12 11 11 11 11 10 10 9 9
4 3 4 3 2 5 9 3 6 6 0 4 4 3 7 7 7 6 5 7 9 8 7 7 6 6 5 4 5 5 5 8 12 15 18 21 21 21 21 22 23 24 24 24 25 24 23 23 24 25 25 25 25 25 25 24 23 22 20 19 18 18 19 19 19 19 19 20 20 19 18 18 17 14 13 15 15 12 11 11 11 10 9 8 9 9 9 10 11 11 11 11 10 9 9 8 8
4 3 2 3 2 3 6 4 3 5 2 2 2 2 4 3 5 4 2 6 8 7 7 8 7 7 6 5 5 5 5 6 9 13 17 20 21 22 21 21 22 24 24 23 24 24 24 24 24 24 24 24 24 24 24 23 22 22 20 19 18 18 18 18 19 19 19 19 19 18 17 16 16 14 13 14 14 12 11 11 11 10 8 8 9 9 9 10 10 11 11 10 9 8 8 8 7
4 3 2 3 2 1 4 5 3 3 4 1 2 2 7 4 4 4 1 3 6 7 7 7 7 6 6 5 5 5 6 6 7 13 18 19 20 21 22 21 21 22 22 22 24 24 24 24 24 23 23 23 23 24 24 23 22 21 20 19 19 18 18 19 19 19 18 18 18 17 16 15 15 14 13 14 14 11 9 10 10 10 9 9 9 9 9 10 11 11 10 9 9 8 8 8 7
3 3 3 4 3 2 4 4 3 3 3 3 3 5 12 8 5 2 1 3 5 7 6 5 6 6 6 5 6 6 6 8 9 12 16 18 18 19 20 21 21 22 22 22 23 24 25 24 24 23 23 22 23 23 23 22 21 21 20 20 20 19 19 20 19 19 18 18 18 16 16 15 14 14 13 13 13 11 9 9 10 10 9 9 9 9 9 11 11 10 10 9 8 8 8 8 7
1 2 1 3 6 5 6 6 5 6 4 4 7 7 10 6 4 2 4 4 6 7 5 5 5 5 6 6 6 6 7 9 9 9 13 14 16 17 18 19 20 21 22 23 23 24 25 25 24 24 23 23 22 22 22 22 22 21 21 21 21 21 21 21 20 20 18 17 17 15 15 15 14 13 13 14 13 12 11 10 10 10 10 9 10 10 11 12 11 10 10 10 9 9 9 9 7
1 0 2 4 5 7 7 4 4 4 5 5 8 8 9 7 5 5 5 5 6 8 7 7 6 6 6 7 7 8 8 8 5 7 12 13 15 16 16 17 18 19 21 23 24 25 26 26 25 25 25 24 23 23 23 23 23 22 22 23 23 22 21 21 20 20 19 17 15 14 14 14 13 12 13 14 14 13 12 11 10 11 11 10 10 10 10 10 10 10 10 10 10 10 10 9 7
1 1 3 5 4 7 8 3 4 1 4 4 2 5 10 9 7 5 3 6 9 11 11 9 9 7 5 7 8 8 7 5 3 6 10 12 14 15 16 17 18 19 21 23 25 26 27 27 27 27 26 25 25 25 24 24 24 24 23 24 24 23 22 21 20 19 18 16 15 14 13 13 13 12 12 14 14 14 14 13 12 13 12 11 10 10 9 10 10 11 11 11 11 11 10 8 6
1 1 0 4 4 5 7 4 4 1 3 4 1 4 8 8 7 6 5 8 8 9 10 8 7 6 6 7 7 7 6 5 5 5 7 12 15 16 17 19 20 22 22 24 26 26 27 28 28 28 27 27 27 27 26 25 25 24 24 23 23 23 21 20 19 18 17 16 15 14 13 14 14 13 13 14 15 15 15 14 14 13 13 12 11 11 11 11 12 12 12 12 11 10 10 8 7
2 3 2 3 4 2 4 5 4 2 0 2 3 3 5 6 5 5 5 7 6 5 5 5 4 6 7 7 6 7 7 7 6 5 6 10 14 16 19 20 22 22 23 25 26 27 28 29 29 28 28 28 27 27 26 26 24 23 23 22 21 21 20 19 19 19 18 17 16 15 15 14 14 14 14 15 16 16 15 15 15 14 14 13 12 12 12 13 13 13 13 13 11 11 10 8 7
3 5 5 4 4 4 4 2 2 4 3 1 4 3 5 4 5 6 4 4 6 5 5 6 6 6 6 6 6 7 8 8 8 7 7 8 12 16 19 21 22 23 24 26 27 28 29 29 30 29 29 29 28 28 26 25 24 22 21 19 17 17 16 15 17 19 19 18 18 17 16 14 15 15 14 15 16 17 16 16 16 16 14 13 13 13 13 13 13 14 14 12 12 12 11 9 7
3 5 9 9 6 5 2 1 3 5 4 3 2 2 5 5 5 6 5 4 6 4 5 8 7 6 5 6 8 7 7 7 8 8 8 8 12 16 19 21 22 24 26 27 27 29 29 29 29 29 29 29 28 27 26 26 25 24 22 20 17 16 15 15 18 20 20 19 18 18 17 15 15 15 14 15 17 18 17 16 17 17 15 14 13 13 13 13 14 15 14 13 12 12 12 11 11
2 5 9 8 5 5 4 3 3 2 2 4 2 4 3 6 4 5 5 5 7 5 6 9 8 7 6 7 8 6 5 6 6 8 8 9 13 15 17 21 24 26 27 26 25 27 27 27 28 28 29 29 29 28 27 27 26 25 24 23 21 19 18 18 20 20 20 19 18 18 17 15 15 15 14 15 17 18 18 17 17 17 16 15 14 14 14 14 14 15 14 13 13 12 13 13 13
3 5 6 6 4 5 6 6 4 2 3 4 4 4 2 4 5 6 5 5 7 6 7 10 8 9 7 7 9 7 6 6 6 7 8 9 12 16 19 23 26 26 25 25 25 26 26 26 28 28 26 25 25 26 27 28 27 27 26 24 22 22 21 20 20 20 19 19 17 17 18 16 15 15 15 16 18 18 18 18 18 18 17 15 15 15 16 15 15 15 15 14 14 14 14 15 14
7 5 5 3 3 5 6 6 4 1 1 3 5 2 3 4 6 5 4 2 7 7 8 10 10 10 8 6 9 8 5 6 6 7 8 9 13 18 20 21 22 22 22 24 26 25 25 25 25 24 23 21 21 22 26 27 28 28 27 25 24 23 22 21 20 19 19 19 17 17 17 17 16 15 16 17 19 20 19 19 19 19 18 17 16 16 16 15 15 16 16 15 15 15 15 15 15
4 5 5 3 5 4 4 5 4 3 3 4 6 2 3 4 6 4 3 2 6 7 7 9 9 10 7 6 8 7 4 4 6 7 7 9 12 15 15 15 16 18 20 22 23 24 24 23 22 23 26 27 26 25 26 28 28 28 27 26 25 24 22 19 18 19 19 19 18 17 17 17 17 16 16 17 18 20 21 21 20 20 19 18 18 17 16 16 16 16 17 16 15 15 15 14 14
1 5 3 4 6 5 4 3 4 4 2 6 6 3 4 1 5 3 2 3 5 5 5 7 8 9 7 6 6 5 4 3 4 5 5 7 9 10 11 13 15 16 18 20 22 23 23 22 22 25 28 29 28 28 29 30 29 28 27 26 25 24 22 20 18 18 19 19 18 18 18 18 18 17 16 17 18 20 22 22 22 21 20 20 20 18 17 17 17 17 17 16 15 15 15 14 14
4 3 3 4 5 5 4 5 4 3 3 6 5 1 6 1 5 5 4 6 5 5 6 7 8 9 8 5 4 4 3 3 3 4 4 4 5 7 10 13 14 16 18 20 22 23 23 23 24 26 28 28 28 29 30 30 29 29 28 27 25 24 23 22 20 20 20 21 20 19 18 18 18 17 17 17 18 19 21 23 23 23 22 22 22 20 19 17 17 17 17 16 15 15 15 15 15
4 3 4 4 4 4 2 3 2 1 4 3 3 1 3 3 6 5 6 8 7 6 5 6 6 8 7 5 5 5 3 3 4 3 3 3 4 6 8 12 14 17 19 20 22 23 23 25 26 28 29 30 29 29 29 29 29 29 29 28 26 24 24 23 23 22 22 22 21 20 19 19 18 17 17 18 19 19 21 23 23 24 23 23 23 23 21 19 17 18 18 17 16 15 16 16 16
3 3 3 3 2 3 1 3 2 2 2 2 4 1 1 4 4 4 7 7 7 6 5 5 5 5 6 5 4 5 4 3 3 3 3 2 3 4 7 10 13 16 18 20 21 23 24 25 27 28 29 30 30 30 29 28 29 29 29 28 27 25 24 24 24 23 23 22 21 20 20 20 19 19 19 18 18 19 21 22 23 23 23 22 23 23 22 21 19 19 20 19 17 16 16 17 17
2 4 5 4 3 3 2 3 2 2 2 3 5 1 2 3 3 5 7 7 6 4 3 2 2 3 4 4 3 4 4 3 2 2 2 0 2 5 7 9 12 15 18 20 21 23 24 26 27 28 28 29 30 30 30 29 29 29 28 28 27 25 24 25 24 23 23 22 20 20 20 19 19 19 18 17 17 19 21 22 22 22 22 22 22 22 22 22 20 20 21 20 18 17 17 18 18
1 3 4 1 3 4 2 2 4 3 1 1 3 1 3 4 4 6 5 4 4 3 4 5 5 5 5 5 5 4 4 4 3 3 1 2 3 5 7 8 11 14 17 19 22 23 25 27 28 28 28 28 28 29 30 29 29 27 27 27 26 25 25 25 25 24 24 23 20 19 19 19 18 17 17 17 17 18 19 21 22 23 22 22 22 22 22 22 21 21 21 21 20 19 19 19 19
1 1 1 4 3 6 4 1 1 3 2 1 1 2 5 3 3 6 6 5 6 6 6 5 5 6 6 5 5 5 5 4 4 4 1 2 3 5 7 9 12 14 16 19 22 24 26 27 27 28 28 27 26 28 29 28 27 26 26 26 25 25 24 25 26 25 25 23 19 18 18 18 19 18 17 17 16 17 17 19 21 22 22 22 22 22 22 22 22 22 22 22 22 20 20 21 20
3 1 3 3 2 4 4 2 3 4 1 2 2 2 5 1 1 5 6 5 5 6 5 6 6 6 5 6 5 5 5 4 5 5 1 2 2 5 8 9 12 14 16 19 21 23 24 25 26 27 27 25 24 26 27 26 25 25 25 25 25 24 24 25 26 24 23 21 19 18 18 18 19 18 17 17 16 16 16 17 19 20 22 22 22 22 22 22 22 23 23 22 22 21 21 22 21
5 2 3 2 2 1 1 2 1 1 1 3 3 3 3 3 3 4 2 3 5 5 5 6 7 6 5 6 6 6 6 4 5 4 3 2 2 3 6 9 11 13 15 17 18 19 20 22 23 24 22 22 22 22 23 24 23 24 24 24 24 24 23 24 25 25 22 20 18 17 17 17 17 18 18 17 16 16 16 17 18 19 20 21 22 22 23 22 22 23 24 23 22 21 22 23 22
5 4 3 2 3 3 1 1 2 2 2 2 2 3 2 5 5 4 5 6 6 5 5 6 8 7 5 5 5 5 6 5 4 4 4 3 3 2 4 7 9 11 13 14 15 16 19 20 21 21 18 19 21 21 21 22 22 23 22 22 22 23 23 23 25 26 24 23 21 17 14 15 17 18 19 18 17 17 17 17 17 18 19 20 20 21 22 23 23 24 25 25 23 22 22 23 23
4 4 5 4 2 1 1 1 2 2 3 3 1 1 5 6 4 6 7 8 8 8 7 7 8 7 6 5 4 5 5 5 5 4 4 4 3 3 3 4 7 9 10 13 14 15 16 17 19 19 17 17 19 20 21 21 22 21 20 20 21 22 22 22 24 25 25 24 21 15 13 14 17 19 19 19 18 17 17 16 16 16 18 19 20 21 21 22 23 25 26 27 26 24 24 24 24
4 3 2 1 1 3 3 2 3 1 3 3 4 2 6 6 2 4 6 5 5 5 6 7 7 7 7 5 4 4 4 4 5 4 4 5 3 3 3 3 5 7 8 11 13 13 14 16 17 18 17 17 18 19 20 21 20 19 19 19 20 21 21 21 22 24 24 22 17 14 17 19 19 18 19 19 18 17 17 17 17 16 16 18 21 22 21 21 23 24 25 27 27 27 27 26 25
Wind_Direction
115 111 102 302 285 272 193 119 75 357 77 78 41 48 267 236 245 279 279 200 233 173 164 159 148 162 207 271 177 147 131 168 174 134 195 243 148 152 155 155 155 156 159 160 158 161 163 162 160 160 161 159 161 160 157 155 153 153 154 156 157 156 155 157 157 157 156 154 154 155 155 153 153 150 146 143 139 133 128 126 124 124 124 125 125 123 117 114 117 115 108 108 111 110 105 98 88
109 122 293 299 286 269 244 98 85 355 55 68 320 170 230 258 237 252 233 224 237 128 137 186 184 194 231 304 159 124 98 21 160 143 117 136 141 151 159 159 158 157 158 159 159 163 164 162 162 163 165 162 162 161 159 158 157 156 156 157 159 158 158 160 159 157 156 156 156 155 153 151 150 149 146 143 140 135 129 129 128 125 123 127 127 125 119 114 112 109 105 105 107 108 101 90 81
87 299 313 314 287 122 101 50 87 44 67 80 293 231 191 207 229 240 243 249 266 319 322 215 160 169 122 10 315 99 121 20 113 124 118 139 143 156 165 162 163 162 158 158 159 165 166 164 163 163 164 162 162 162 160 159 161 161 159 159 160 161 161 163 163 160 158 157 156 154 151 148 147 147 146 142 140 137 133 134 133 127 124 129 129 125 121 115 109 108 106 105 108 105 95 87 77
62 334 329 352 9 55 58 46 108 108 90 137 297 268 185 189 236 259 262 262 270 352 343 339 64 132 121 123 224 92 105 31 122 125 134 151 158 161 163 162 165 163 160 162 161 162 165 164 161 160 162 162 162 161 160 159 161 163 161 160 160 161 162 164 165 162 160 159 158 154 150 149 146 146 149 144 140 140 139 139 136 129 123 125 127 124 120 119 115 111 107 107 110 102 96 94 83
41 349 337 67 74 16 81 70 79 86 124 175 112 280 228 205 247 290 284 284 272 170 203 327 71 123 116 132 144 119 118 98 134 135 133 146 160 161 160 161 164 163 162 165 164 163 162 162 162 161 160 160 161 161 161 160 161 163 162 162 162 162 161 164 165 163 163 161 159 157 153 152 150 150 153 147 144 145 145 145 143 137 131 121 122 128 126 123 122 119 113 109 109 103 99 95 88
9 12 47 78 97 113 85 64 57 56 210 172 142 268 245 210 228 298 306 303 251 204 197 215 141 125 83 70 65 122 157 130 137 146 140 142 156 160 159 159 161 161 161 164 167 167 163 163 164 163 161 161 160 159 160 160 160 162 162 162 163 163 163 166 166 164 164 163 162 160 157 156 156 157 157 151 148 150 151 152 150 147 144 137 129 133 134 127 122 125 119 109 110 108 101 90 87
10 344 49 61 35 52 78 86 115 334 242 171 179 247 253 211 185 26 328 332 122 203 182 234 151 108 72 88 69 82 146 141 143 158 158 152 155 158 160 159 157 158 160 163 167 170 168 167 166 165 162 162 161 160 161 160 160 161 161 162 164 164 163 165 166 165 165 165 165 164 162 161 163 165 162 154 153 155 157 158 157 156 153 152 147 140 140 136 128 128 120 109 108 106 100 92 81
21 1 41 73 30 33 82 98 150 217 246 222 218 227 239 183 153 95 336 354 32 338 313 277 62 93 359 43 71 41 101 135 154 161 163 157 158 158 160 160 157 159 161 163 166 170 172 171 168 166 164 163 163 162 162 160 160 160 162 164 165 166 165 165 167 167 167 168 168 168 167 167 169 170 164 159 161 161 160 162 163 163 162 161 156 150 147 141 134 126 116 114 116 113 104 96 76
23 28 49 72 57 27 51 21 337 240 272 267 255 256 240 151 143 123 153 318 284 344 346 298 76 102 19 49 73 40 86 135 149 155 161 161 163 161 162 162 160 161 162 164 166 169 171 172 170 167 165 164 164 164 163 160 160 160 163 166 167 168 167 167 169 170 171 172 173 172 171 172 175 174 169 167 172 172 166 166 169 170 170 169 163 157 151 137 130 119 111 115 113 110 99 96 99
20 36 84 74 67 25 4 340 309 259 276 264 266 273 259 137 139 133 160 198 287 48 23 31 77 102 113 66 54 60 116 141 144 149 160 164 166 167 168 168 166 164 163 164 164 168 169 170 171 169 166 164 166 168 167 165 163 163 163 166 169 171 171 171 173 174 175 177 179 179 178 178 178 177 174 174 178 180 174 171 172 173 172 170 164 164 159 135 121 114 113 116 96 95 102 124 131
18 360 87 78 55 35 328 292 299 284 285 303 296 272 207 137 127 115 152 172 305 102 90 49 86 114 102 77 47 114 133 145 146 149 160 166 167 171 173 173 173 170 167 165 164 167 168 168 170 168 166 166 169 171 172 172 171 170 168 168 169 172 173 175 177 178 178 181 185 186 186 184 183 180 177 177 178 182 183 179 175 172 173 167 164 174 174 147 129 133 140 135 130 202 240 255 315
45 331 62 82 93 153 210 223 287 293 309 326 292 276 146 127 127 142 151 160 302 77 44 34 133 138 82 67 110 126 137 148 150 153 162 165 167 172 175 176 178 176 172 169 167 167 168 168 169 169 169 169 170 172 175 177 177 177 176 175 174 175 176 179 180 181 182 184 187 189 190 190 188 185 180 179 177 179 181 181 180 178 179 174 174 181 182 175 158 159 163 155 160 202 238 261 279
101 169 76 71 153 139 136 193 286 313 322 283 233 264 124 127 175 177 150 133 93 83 50 6 126 101 82 91 120 137 149 155 154 154 159 162 167 171 174 177 178 179 176 174 172 170 171 170 171 172 173 175 174 175 178 179 179 179 180 181 180 182 184 185 185 186 188 190 191 192 194 196 197 194 188 185 183 183 181 180 184 185 186 188 191 191 186 195 191 164 161 160 165 192 240 262 267
134 152 102 62 65 114 137 135 299 281 281 255 217 200 128 149 203 170 137 130 231 148 161 266 119 95 98 131 130 162 158 156 155 152 153 156 163 167 173 176 177 180 178 178 177 174 175 174 176 177 177 180 179 178 181 182 182 182 182 184 185 187 189 190 190 190 193 194 195 197 199 202 204 204 199 197 194 188 184 181 185 185 191 204 210 211 202 200 202 183 169 164 167 196 260 277 270
143 121 91 92 20 19 174 214 260 166 255 246 188 148 118 321 148 149 154 149 230 198 149 277 138 113 159 168 183 188 156 154 154 150 148 148 154 161 170 173 175 179 179 181 181 180 180 178 184 186 180 182 185 182 182 183 186 189 187 188 190 189 190 192 193 193 195 195 196 197 199 202 202 203 200 198 193 185 182 179 183 186 192 212 221 226 218 206 205 190 180 176 182 225 273 284 273
131 101 71 76 6 325 220 196 123 117 258 249 135 111 105 310 101 154 216 156 222 219 60 172 160 110 164 178 182 162 153 152 151 148 146 143 149 155 163 169 172 177 179 183 184 185 185 181 188 194 187 185 192 189 186 187 189 194 193 193 194 192 192 193 194 194 196 198 199 200 200 202 202 204 200 196 189 180 181 182 188 193 194 207 223 235 227 213 214 199 190 193 207 249 275 283 273
71 80 71 56 177 216 214 183 168 178 230 244 268 141 133 288 308 209 236 110 156 55 42 181 318 99 166 169 149 148 148 150 150 147 144 144 148 150 159 167 170 175 180 184 186 188 188 184 187 197 197 191 195 196 192 194 194 194 198 199 198 197 197 196 197 195 196 200 201 203 204 203 202 206 202 204 208 184 182 191 199 202 199 202 216 237 233 213 214 211 205 209 221 248 271 279 273
54 82 96 184 192 198 197 182 192 174 167 190 195 177 154 187 229 249 23 63 73 29 358 356 10 38 143 132 137 144 148 151 151 148 146 148 152 155 161 169 173 177 181 185 189 189 189 189 188 195 203 199 198 201 199 200 200 197 199 203 201 203 206 203 203 201 200 201 201 203 205 205 205 206 204 207 216 196 190 198 203 204 198 200 213 228 232 219 219 224 220 225 235 247 266 276 270
98 110 112 225 203 209 208 173 181 180 152 168 187 187 179 204 194 171 182 236 46 91 296 18 51 69 115 128 136 146 153 154 154 152 155 159 162 164 166 173 177 181 184 186 190 192 192 191 192 194 201 206 204 204 204 204 205 204 204 205 204 205 209 209 209 208 207 206 208 210 208 206 208 209 207 206 209 202 199 203 205 203 199 204 216 223 225 218 226 242 238 237 243 251 264 275 271
170 114 136 239 210 220 240 184 183 195 145 145 176 183 221 266 186 144 178 181 315 209 223 124 127 144 136 140 142 151 156 156 158 159 164 168 169 170 172 176 181 186 187 188 189 193 195 194 195 195 198 205 208 206 206 208 209 211 211 209 210 208 208 210 212 213 210 210 215 220 217 210 208 208 205 200 202 206 205 205 206 205 203 210 219 226 228 222 224 236 237 235 241 254 269 279 270
190 146 192 237 195 207 239 206 185 159 138 143 145 132 227 260 174 221 139 125 289 248 226 200 175 163 151 151 151 158 160 157 164 166 170 174 172 173 177 180 185 190 189 189 190 192 196 198 197 197 198 201 206 207 207 210 210 214 216 212 213 215 215 213 215 217 213 213 218 223 221 217 214 212 205 195 198 207 207 203 206 207 207 213 223 232 233 227 219 220 225 234 247 260 273 284 276
159 230 233 219 160 218 227 177 135 111 110 118 133 149 194 185 140 203 159 164 237 235 227 206 178 166 157 156 157 161 163 162 169 172 174 178 175 174 178 183 188 191 191 193 193 194 196 199 199 197 198 199 202 206 208 211 210 211 215 212 212 217 221 220 220 221 219 219 220 221 221 219 219 217 212 206 206 212 213 211 211 211 210 214 226 235 233 224 218 223 231 241 256 261 270 283 282
77 295 299 215 161 301 319 121 138 138 119 136 164 177 149 136 226 202 181 213 225 239 222 176 166 174 159 155 160 165 168 168 173 177 179 180 179 177 177 183 187 188 192 196 195 195 196 197 200 199 199 200 201 204 207 211 213 211 211 212 213 216 219 221 222 224 225 224 222 222 222 222 222 223 223 221 216 215 217 218 217 217 215 216 225 233 234 232 231 237 242 247 256 258 264 274 278
118 303 318 47 7 317 16 119 152 134 137 171 158 136 145 164 213 152 206 237 242 293 222 147 145 167 157 156 165 170 171 173 177 180 181 183 184 183 182 185 189 189 191 196 197 196 197 198 200 202 202 202 202 204 206 209 212 212 212 215 218 220 221 221 223 225 227 227 228 229 228 230 232 234 234 231 227 223 222 221 219 220 220 217 222 230 236 241 243 244 246 251 254 253 261 269 273
86 289 268 79 13 309 39 109 126 76 80 178 126 142 197 179 171 156 227 245 255 306 114 130 132 152 163 164 170 172 173 176 178 179 182 188 187 184 186 188 189 191 193 195 197 197 199 200 201 204 205 204 205 205 207 208 209 212 214 219 221 223 225 226 227 228 228 228 231 234 235 238 237 235 235 235 235 234 231 228 225 226 228 228 228 230 233 238 242 244 249 253 251 250 260 269 271
260 238 214 126 107 314 38 96 114 96 135 168 145 199 272 192 150 253 244 238 216 136 118 129 134 153 173 171 173 174 175 178 179 179 182 189 189 185 188 190 191 196 198 196 197 199 200 201 202 205 206 206 207 207 208 209 209 211 214 220 222 222 225 228 228 229 230 229 230 231 231 233 232 231 234 238 238 237 237 235 234 234 235 238 240 237 231 232 238 242 249 253 251 253 262 271 271
227 216 171 99 92 320 47 82 89 136 224 203 174 232 298 18 52 268 264 219 142 130 126 137 144 159 172 174 180 177 178 183 182 179 179 186 188 190 191 190 193 198 198 196 199 202 201 202 203 206 207 207 208 210 212 211 212 213 215 219 221 222 224 226 226 228 231 233 232 229 227 227 229 232 235 240 241 238 237 238 239 239 238 241 247 246 235 232 237 243 250 254 254 257 264 269 267
235 171 96 18 19 30 45 74 64 67 221 194 161 209 347 45 170 237 263 186 140 140 145 150 158 163 159 172 183 180 185 185 183 182 180 186 190 193 195 192 194 197 198 198 201 203 202 203 203 206 207 208 210 212 214 215 215 215 216 219 221 223 226 226 226 228 232 236 236 234 232 228 228 235 239 241 241 236 233 236 241 242 243 246 248 248 242 238 241 246 250 251 254 257 261 261 259
17 104 116 333 6 11 302 118 102 97 218 187 146 285 310 204 214 244 268 171 135 139 157 162 171 167 147 163 180 181 186 183 186 192 192 194 195 196 197 196 195 197 201 202 202 202 204 204 203 205 207 208 211 212 214 216 216 216 217 220 222 224 227 229 230 232 234 237 240 240 239 236 234 239 241 242 242 239 234 234 240 245 246 249 250 248 247 245 244 246 248 249 251 253 256 257 258
15 46 88 354 10 336 286 82 108 138 193 114 118 277 279 246 237 270 275 161 131 144 169 173 180 177 159 160 173 183 188 188 195 202 201 201 202 202 203 201 199 199 201 202 203 204 205 206 204 205 206 208 210 211 213 214 215 215 216 219 223 226 229 232 234 236 237 239 243 244 244 241 234 233 236 240 242 239 236 233 237 245 248 248 248 246 246 247 245 246 247 246 247 250 255 257 260
32 21 41 34 29 289 294 321 130 154 200 59 94 239 271 271 271 273 247 162 146 168 180 181 188 189 183 174 178 192 200 204 206 207 207 208 208 209 209 207 203 202 201 202 206 206 206 208 207 207 207 208 208 210 212 213 214 214 214 217 221 227 231 232 235 238 239 241 243 244 244 240 235 234 233 238 243 236 232 232 233 240 246 245 241 240 242 245 244 244 244 243 244 249 254 256 257
33 31 345 344 191 271 304 299 159 168 250 57 104 232 274 285 299 281 224 163 158 177 186 186 193 197 199 198 195 203 212 215 215 214 215 215 215 215 215 213 209 207 207 206 206 205 206 210 210 209 210 209 209 211 213 214 215 214 214 218 222 228 231 232 234 238 241 242 244 246 243 239 243 243 231 236 244 237 229 231 234 237 241 237 234 237 237 237 238 240 239 239 240 244 249 250 252
356 58 340 285 239 292 315 312 204 172 123 39 136 232 273 293 333 329 206 173 166 177 197 192 196 204 202 208 209 212 219 221 223 221 219 219 219 220 218 218 216 213 212 210 206 205 206 210 211 211 212 212 212 213 214 216 217 217 217 220 225 229 232 234 235 238 243 245 248 250 248 244 247 243 229 234 243 239 229 227 233 238 236 229 230 235 233 229 231 235 236 234 236 238 241 246 252
326 31 36 270 233 241 289 305 290 142 118 222 223 251 257 271 6 30 91 199 181 189 206 199 198 207 208 209 215 220 220 224 227 222 219 218 220 222 222 222 221 218 216 214 211 209 209 210 212 212 214 216 216 216 215 217 220 220 222 226 230 232 236 239 239 242 245 247 250 252 253 248 245 242 233 233 240 239 226 222 232 237 231 226 229 233 227 222 223 229 233 229 230 234 237 247 255
316 326 1 315 297 241 248 281 271 138 111 214 211 260 259 271 357 28 229 214 206 215 214 208 208 206 211 212 216 222 225 232 231 226 223 220 220 221 223 222 221 220 218 216 214 212 211 211 212 212 214 217 217 218 216 216 219 221 224 230 234 235 237 240 242 244 245 249 252 253 254 250 245 243 234 229 236 234 219 219 230 230 225 223 226 225 217 216 219 224 229 227 227 234 241 250 258
277 300 230 275 296 281 240 244 236 173 136 221 210 234 259 280 346 310 245 216 218 236 230 225 221 208 211 212 222 224 227 238 233 228 229 225 224 223 222 221 221 219 217 215 213 211 210 210 210 210 213 216 216 215 213 213 215 217 222 228 231 231 234 239 241 242 245 247 249 251 252 249 244 238 229 226 230 228 218 218 222 221 219 221 222 217 211 211 216 221 226 227 229 238 243 248 260
80 30 252 257 265 281 261 246 265 173 153 239 222 232 267 282 292 270 247 228 230 239 234 229 223 213 210 208 220 223 228 242 237 228 230 226 226 223 221 221 220 217 214 212 210 209 209 209 209 209 212 214 214 213 211 211 212 212 215 222 227 227 230 236 237 237 242 243 242 243 245 246 242 229 219 222 224 220 217 215 216 215 215 220 223 218 211 211 215 221 227 232 237 244 246 248 262
328 213 284 291 231 259 268 256 317 244 183 268 240 228 266 272 272 273 230 209 222 226 222 225 224 218 214 211 220 225 231 247 230 221 221 218 219 218 216 216 215 214 211 209 209 208 208 208 209 210 211 213 215 217 214 212 215 215 216 220 225 226 228 232 232 232 236 238 238 238 238 240 241 229 213 217 219 214 213 214 215 215 214 222 226 220 215 213 216 221 227 235 240 245 249 249 256
252 153 330 297 251 265 290 310 343 34 197 272 192 194 260 271 273 278 224 211 228 230 220 226 227 221 226 221 221 227 232 239 229 218 210 208 209 208 209 209 211 213 211 209 208 207 206 207 209 211 211 213 216 219 219 218 219 221 223 226 228 230 234 236 234 235 236 237 237 238 238 236 238 234 216 214 217 212 212 214 214 215 217 223 224 218 212 211 216 221 226 233 240 247 251 249 246
188 154 140 261 267 264 295 315 348 29 135 241 158 183 279 297 310 301 245 234 268 289 260 247 230 225 233 226 213 213 217 224 226 220 207 204 202 201 203 205 208 210 209 208 206 205 205 207 209 210 211 214 216 219 222 223 222 223 225 230 234 236 240 242 239 240 240 240 239 239 241 238 238 236 220 215 217 213 211 212 212 214 217 220 221 217 211 210 214 220 224 230 238 243 246 246 246
241 191 180 228 248 214 225 282 3 3 354 92 94 27 317 325 340 315 304 285 275 309 319 278 251 238 238 238 226 209 205 212 214 215 210 201 200 201 203 205 207 207 208 208 206 206 206 207 209 211 212 214 217 219 221 223 222 222 222 226 231 231 236 240 236 237 239 240 240 239 240 241 240 237 224 216 218 215 212 211 211 211 214 216 217 217 213 212 215 220 224 227 233 237 238 245 254
300 223 204 213 213 198 202 71 62 32 343 297 47 32 295 318 342 297 315 323 274 301 316 274 268 264 244 247 246 219 201 207 208 212 206 199 202 202 204 205 205 208 210 209 208 208 207 209 210 211 212 213 216 219 220 220 220 220 220 219 218 214 217 225 230 235 239 240 241 240 241 242 242 237 227 220 219 217 215 212 209 210 213 214 214 217 217 216 218 220 223 226 229 234 238 249 256
328 247 205 196 164 131 135 143 110 81 266 297 32 138 250 319 333 285 305 315 288 297 287 267 271 271 250 250 258 239 204 202 210 213 204 200 201 198 202 204 205 210 211 208 208 209 208 209 210 211 213 214 217 218 219 219 218 219 221 221 220 216 214 221 228 235 241 244 244 243 243 244 242 237 230 226 220 218 218 214 209 210 212 213 215 219 220 219 218 219 223 226 229 233 239 250 256
254 240 166 159 149 150 169 158 136 178 217 324 10 113 130 314 282 278 301 305 297 294 272 269 269 263 254 251 260 255 216 198 203 211 209 207 201 200 205 206 208 210 208 205 206 207 208 209 212 212 213 215 218 218 218 218 217 219 221 221 223 224 224 226 230 233 238 243 243 242 242 242 242 237 232 231 225 219 220 216 210 210 212 213 217 220 221 219 218 219 223 227 232 237 242 250 255
248 207 136 149 161 162 160 136 128 132 109 318 317 89 109 276 274 305 342 304 291 281 259 261 262 262 261 255 259 260 234 204 203 210 213 212 207 208 211 210 211 210 206 205 204 204 206 209 209 207 208 215 222 223 221 220 220 221 222 220 221 226 228 230 233 235 235 237 239 239 238 237 238 235 231 233 229 223 222 219 213 212 212 213 217 219 219 219 219 219 221 226 232 239 244 248 248
245 142 112 37 57 77 94 108 113 59 56 255 261 154 135 268 284 322 4 284 266 264 258 258 258 263 263 256 262 268 256 219 217 224 221 220 219 218 215 212 212 211 208 207 204 203 205 204 201 203 211 218 222 223 223 223 221 220 221 219 218 223 227 229 232 234 234 233 233 233 232 232 232 232 230 232 232 227 225 224 220 216 215 216 219 219 219 221 222 219 219 224 231 241 245 240 235
22 90 72 13 26 31 38 61 85 73 318 258 249 177 128 290 282 251 211 228 227 227 259 266 265 272 268 253 261 274 274 245 232 240 240 234 229 222 214 209 208 207 208 206 204 204 203 200 199 206 217 221 219 220 222 224 221 219 220 219 219 223 228 229 229 230 232 231 229 227 228 229 229 230 230 231 232 230 228 228 226 223 220 221 222 222 223 223 223 221 219 224 233 241 240 234 231
51 76 58 16 345 9 26 0 42 93 258 271 273 194 117 137 265 248 246 254 235 206 226 246 256 268 271 272 289 302 295 260 235 239 242 233 218 206 201 200 199 199 201 203 203 203 200 199 203 210 218 221 219 219 221 222 220 219 220 221 223 226 230 232 229 229 232 232 229 226 223 224 226 228 228 229 231 230 229 229 230 229 227 226 226 226 227 227 226 224 221 226 234 236 233 233 236
77 99 66 48 339 2 19 331 14 181 236 263 296 338 127 220 246 250 271 274 261 239 235 252 265 272 285 318 336 332 317 251 237 241 228 210 202 199 192 190 191 193 197 200 202 201 200 201 205 211 217 221 220 219 220 221 220 220 221 223 226 228 230 234 233 233 235 234 230 224 220 219 221 223 225 227 229 228 228 229 231 232 232 231 230 230 231 230 229 226 223 227 232 232 233 237 242
120 152 116 108 81 49 320 285 300 277 270 275 285 273 197 274 263 251 273 279 269 259 251 256 267 278 292 309 321 320 304 252 243 248 229 209 202 204 197 190 189 193 198 201 202 202 201 203 206 211 217 221 220 219 221 221 221 222 223 225 228 230 231 234 235 237 237 234 230 226 224 223 223 226 228 229 229 228 228 230 232 234 236 236 235 234 234 233 232 228 225 227 230 231 235 242 248
147 157 131 134 150 142 232 248 223 256 279 289 296 310 165 228 258 264 275 283 282 272 263 276 298 305 305 306 323 330 311 299 300 278 269 132 182 201 195 189 191 196 200 202 203 203 203 205 210 213 217 219 219 220 221 221 222 223 224 226 229 232 234 236 239 242 241 236 232 229 229 229 229 233 235 233 230 229 229 231 233 236 239 240 239 238 238 235 234 230 226 228 230 231 237 246 252
258 158 107 124 191 143 143 190 176 193 207 296 305 266 208 219 266 292 303 314 330 351 6 9 349 333 346 344 337 331 311 317 319 290 339 79 171 187 180 183 192 199 202 203 204 205 206 209 213 216 219 219 220 221 222 222 223 224 225 226 229 233 236 238 240 243 241 237 235 234 234 235 236 237 239 237 232 230 231 232 233 237 241 242 242 243 242 238 236 231 227 229 231 233 239 246 253
262 116 150 251 182 118 112 188 25 63 124 246 322 290 299 322 292 308 352 10 357 2 4 356 330 330 348 333 314 315 310 315 303 289 15 102 162 164 168 182 193 199 204 207 208 209 210 212 214 218 221 221 220 223 225 225 225 226 227 229 231 235 237 239 240 241 239 236 236 238 240 240 240 239 240 239 235 233 233 234 236 238 241 243 245 246 244 241 239 234 230 231 233 236 242 248 254
91 68 227 238 94 92 108 121 10 35 137 273 344 314 303 352 237 315 359 2 326 333 341 331 316 320 324 300 295 301 299 299 291 294 2 110 150 154 168 185 197 205 210 213 214 215 215 215 217 221 223 222 223 226 227 226 227 229 231 233 237 239 241 240 238 237 238 235 234 237 239 241 242 240 240 240 238 237 238 238 239 240 241 244 247 246 243 242 242 238 234 235 238 240 245 250 255
84 125 194 120 90 327 4 86 104 77 147 283 325 322 269 199 220 286 301 246 262 293 315 312 292 283 282 283 295 305 305 309 301 312 357 35 96 148 175 186 199 209 214 218 218 218 220 220 223 225 225 227 231 232 230 229 230 233 236 239 242 242 243 242 235 234 235 234 233 236 239 241 240 237 234 232 232 235 240 243 244 244 243 244 246 246 244 244 245 242 239 240 242 244 247 250 253
36 50 27 39 129 161 169 114 155 142 148 223 306 344 276 227 217 210 225 239 237 251 274 271 262 263 262 264 287 305 305 311 318 334 345 354 56 119 193 198 205 212 216 219 219 220 225 226 228 231 230 231 236 238 236 235 237 239 241 243 244 244 244 243 237 234 234 235 238 240 241 239 237 234 231 230 230 229 234 240 244 246 246 245 246 248 248 247 246 245 244 245 247 248 248 250 253
22 34 19 352 354 78 116 46 59 116 137 178 191 305 266 252 207 184 212 227 213 210 227 240 251 261 263 260 270 286 296 313 331 342 329 329 36 91 183 206 211 217 218 220 221 223 228 230 232 235 235 234 239 243 244 244 244 243 244 245 247 248 247 245 240 236 235 237 237 237 237 238 238 237 236 236 236 231 229 233 238 242 244 243 243 244 247 248 249 248 246 247 250 251 251 252 254
93 87 34 308 343 62 84 1 331 97 125 162 161 196 266 264 205 213 232 234 234 223 215 234 257 264 268 264 241 255 293 313 318 328 320 314 358 86 140 179 196 209 216 221 224 226 230 235 237 239 239 240 243 247 249 250 250 248 249 250 251 251 251 247 241 237 235 233 227 227 236 238 237 237 238 237 235 232 229 227 227 231 237 242 243 242 242 243 246 248 248 248 249 249 251 252 253
Height
773 774 773 773 773 774 777 777 794 800 802 822 824 822 817 807 807 807 807 803 802 798 792 794 793 793 796 798 797 796 800 803 804 814 817 798 791 796 796 800 802 805 807 808 810 811 812 812 811 813 815 818 820 822 824 826 828 829 831 833 835 836 837 839 839 841 842 842 843 844 846 847 848 849 849 850 850 851 851 851 852 852 853 853 854 854 855 856 856 857 857 858 858 859 859 860 860
772 773 771 772 772 775 781 778 799 811 810 824 822 820 815 806 808 808 806 803 801 795 790 791 791 791 791 792 792 794 798 797 795 799 799 793 795 797 797 800 803 805 808 809 811 813 815 816 817 818 820 821 822 823 825 828 829 831 832 834 836 837 838 840 840 842 842 843 844 845 847 848 849 849 850 851 851 852 852 853 853 854 854 855 855 856 856 857 857 858 859 859 860 860 861 861 861
772 772 770 772 772 774 780 781 802 817 818 826 820 812 809 808 809 805 802 799 795 791 790 790 790 790 791 796 794 796 799 793 792 794 795 796 795 797 799 800 803 806 808 810 812 814 815 817 819 820 821 822 822 824 826 828 830 832 833 835 836 838 839 840 841 842 843 844 845 846 847 848 849 850 851 851 852 853 853 854 854 855 855 856 856 857 857 858 859 859 860 860 861 861 862 862 862
771 770 770 771 775 777 784 793 807 816 822 827 820 808 805 808 805 801 798 794 791 789 791 791 791 787 789 799 794 795 798 793 791 792 795 796 796 796 799 801 803 805 807 810 812 814 816 817 819 820 821 822 823 824 826 829 831 833 834 835 836 838 839 841 842 843 844 845 846 847 848 849 850 851 852 852 853 854 854 855 856 856 857 857 857 858 859 859 860 860 861 861 862 863 863 863 863
770 770 769 770 779 784 788 802 810 814 820 821 816 807 803 803 801 800 795 791 789 790 791 791 794 787 786 793 791 796 797 793 791 790 793 796 797 798 800 802 804 806 808 809 811 814 815 817 819 820 822 823 824 825 827 829 831 833 834 835 837 838 840 841 842 843 844 845 847 848 849 850 851 851 852 853 854 854 855 856 856 857 858 859 859 859 860 860 861 861 862 863 863 864 865 865 864
769 770 769 769 778 781 792 809 814 816 813 811 811 805 801 800 799 799 795 791 788 788 789 790 793 790 792 791 788 793 792 792 792 789 792 795 798 799 801 803 805 807 809 810 812 814 816 818 819 821 822 824 825 826 828 829 831 833 834 835 837 838 840 841 842 843 844 846 847 848 849 850 851 852 853 853 854 855 856 856 857 858 858 860 860 860 861 862 862 862 863 864 865 865 866 866 865
769 771 772 776 781 784 803 817 816 817 808 804 806 802 799 797 797 797 796 794 791 789 788 789 786 791 799 792 791 792 788 790 789 790 791 794 798 800 802 804 806 808 810 812 813 815 817 818 820 821 823 825 826 827 829 830 831 833 834 835 837 838 840 841 842 844 845 846 847 849 850 851 852 852 853 854 855 855 856 857 858 858 859 860 861 861 861 863 864 864 865 865 866 866 866 866 867
768 774 776 783 794 798 812 818 815 814 806 801 800 798 796 795 796 797 798 797 795 792 789 788 784 795 801 792 798 795 788 791 789 791 792 793 798 800 803 804 807 809 811 812 814 816 817 819 820 821 823 825 826 828 829 830 831 832 834 836 837 839 840 842 843 844 845 847 848 849 850 851 852 853 854 855 855 856 856 857 858 859 860 861 862 862 862 863 865 865 866 866 866 867 867 867 868
768 774 779 788 802 808 815 818 815 811 804 800 797 795 794 793 794 796 798 797 795 793 792 788 785 797 801 796 802 795 790 792 790 792 792 794 797 800 803 805 807 809 811 812 814 816 817 819 820 822 823 825 827 828 830 830 832 833 835 836 838 839 840 842 843 844 845 847 848 849 850 851 852 853 855 855 856 856 857 858 859 860 860 862 863 863 863 864 865 866 867 867 867 868 868 867 868
772 776 785 795 805 814 818 818 815 809 803 799 796 793 793 792 793 796 797 797 794 794 791 785 786 796 800 802 803 795 794 793 791 794 794 795 797 799 803 805 808 809 811 813 815 817 818 820 821 822 824 826 827 828 830 831 833 834 835 837 838 839 840 842 843 845 846 847 848 849 851 852 853 854 855 856 857 857 858 858 859 860 861 863 863 863 864 864 865 866 867 868 868 868 868 868 868
780 781 785 799 809 816 819 816 813 809 803 799 796 791 791 791 793 796 796 796 793 793 790 787 793 797 798 803 802 795 795 794 793 794 794 796 798 800 802 804 807 809 811 813 815 817 818 820 821 823 824 826 827 828 830 832 833 835 836 837 838 839 840 841 843 845 846 847 849 850 851 852 853 854 855 856 857 858 859 859 860 861 862 863 864 864 864 864 865 865 866 867 868 868 869 869 868
787 790 789 802 813 815 816 816 813 808 804 801 797 790 788 790 793 796 796 796 793 793 790 789 792 792 801 807 801 796 795 796 796 795 795 797 799 801 802 805 807 809 812 813 816 817 819 821 822 823 825 826 827 829 830 831 833 834 836 837 838 838 839 841 842 844 846 847 849 850 851 852 853 854 855 856 857 858 860 860 861 862 863 863 864 864 864 864 864 864 865 866 868 868 869 869 869
787 794 794 805 812 814 815 817 813 811 808 801 796 789 787 790 793 794 795 795 793 795 791 786 786 788 803 806 798 797 796 797 797 797 797 798 800 802 804 806 808 810 812 814 816 818 820 821 823 824 825 826 827 829 830 831 832 833 835 836 837 838 840 841 842 844 845 847 848 850 851 852 854 855 856 857 858 859 860 861 862 863 863 864 864 864 864 864 864 864 865 866 867 868 869 869 869
784 789 794 806 812 811 813 816 814 815 809 798 793 788 788 790 791 790 792 796 794 793 788 781 782 791 803 805 803 799 796 797 798 799 799 800 802 804 806 807 809 811 813 815 816 818 820 822 823 824 825 826 827 828 829 831 832 833 834 835 837 838 839 841 842 843 844 846 848 849 851 852 854 855 856 857 858 859 861 862 863 863 864 864 864 865 864 865 865 865 866 867 867 868 869 869 869
781 786 793 805 811 811 811 813 814 815 807 794 792 789 790 790 788 790 790 794 793 784 782 780 780 791 800 803 803 797 794 797 798 800 801 802 804 805 807 808 810 812 813 815 817 819 821 823 822 823 825 826 827 828 829 830 832 833 834 835 836 837 839 840 841 842 843 845 847 848 850 851 853 855 856 857 857 858 860 863 863 863 863 863 864 865 865 865 865 865 866 867 867 868 868 869 869
778 784 796 806 811 814 811 810 813 815 804 794 792 789 793 792 787 790 787 787 789 782 783 785 781 787 792 793 792 789 792 796 798 801 801 804 805 807 809 810 811 812 814 815 817 819 821 823 823 823 825 826 827 828 829 830 832 833 834 835 836 837 838 839 840 841 843 844 846 848 850 850 852 854 856 857 857 858 860 863 864 863 861 862 863 865 866 865 866 866 866 866 867 868 868 868 869
776 785 802 808 812 814 807 807 809 806 799 795 793 790 795 794 788 787 782 783 788 786 785 786 782 782 785 785 785 786 792 796 798 800 802 804 805 808 809 810 812 813 815 816 817 820 821 824 824 823 824 827 828 828 830 831 832 833 834 835 836 837 838 839 840 841 842 844 846 847 849 850 851 854 856 859 860 860 861 863 863 862 860 861 863 866 866 865 865 866 866 866 867 867 868 868 869
782 795 805 807 811 807 797 797 798 795 794 795 793 791 793 794 791 786 784 788 789 789 787 785 783 781 781 783 784 788 793 795 797 799 801 804 805 807 809 810 812 813 814 816 818 819 821 823 824 824 824 826 828 828 830 831 832 832 833 835 835 837 838 839 840 840 841 843 845 846 847 848 851 853 855 858 860 862 862 862 861 860 859 860 862 865 866 864 864 866 866 866 866 867 867 868 868
788 799 805 804 803 795 786 786 788 789 790 792 793 792 792 792 790 787 790 795 792 793 792 788 789 786 784 784 786 790 792 795 797 798 800 802 803 805 807 809 811 812 813 815 817 818 820 822 823 824 824 825 827 828 829 830 832 832 833 834 835 837 838 839 839 840 841 843 844 845 846 848 850 853 854 856 859 862 862 860 860 859 859 860 862 864 865 864 864 866 866 866 866 866 867 868 868
789 795 802 798 791 787 784 783 783 784 785 791 795 792 794 791 789 789 793 798 796 797 794 791 793 791 788 786 787 790 792 795 797 798 800 801 802 803 805 807 808 810 811 813 815 817 819 820 822 823 824 825 826 828 829 830 831 832 833 834 835 836 837 838 839 840 841 842 843 844 846 847 849 852 854 855 858 860 859 859 858 859 859 860 862 863 863 863 864 866 866 865 865 866 867 868 868
788 791 796 789 786 787 783 781 782 783 784 788 793 794 796 791 789 792 795 801 801 796 790 788 790 789 788 787 787 790 792 795 797 799 800 801 802 803 804 806 807 809 811 813 814 816 818 819 821 822 824 824 826 827 828 829 830 831 832 833 834 835 836 837 838 839 841 842 843 843 844 846 848 851 852 854 856 857 856 857 856 857 858 859 861 861 862 863 864 865 865 864 865 866 866 867 868
787 788 786 783 786 787 781 781 784 784 785 788 793 794 793 790 790 793 795 800 797 789 783 783 784 784 784 785 787 789 791 794 796 798 799 801 802 803 805 806 808 809 810 812 812 814 816 818 819 821 822 824 825 826 827 828 829 831 831 833 834 834 835 836 837 839 840 841 842 843 843 844 847 848 849 851 854 854 854 855 855 856 857 859 860 860 861 862 864 864 863 863 864 865 866 867 867
788 788 782 783 785 784 782 783 785 784 785 788 790 789 788 792 793 791 793 792 785 779 778 779 781 781 781 783 786 788 790 793 794 796 798 800 801 802 803 805 806 807 809 810 811 813 815 817 818 820 821 822 824 825 826 827 828 830 831 832 833 834 835 836 837 838 839 840 841 842 842 843 845 845 846 849 851 851 852 852 853 854 856 858 859 860 860 861 862 862 862 863 863 864 865 866 867
787 788 783 783 782 783 783 784 785 786 785 785 785 786 788 794 794 792 791 785 778 776 775 776 780 781 783 784 787 788 789 791 793 796 797 799 800 801 802 803 805 806 807 809 810 812 814 816 817 819 820 821 822 824 825 826 827 828 830 831 832 833 834 835 836 837 838 839 840 841 841 841 842 843 844 846 848 848 849 850 851 852 854 856 857 858 859 860 861 860 861 862 863 864 864 865 866
784 786 782 781 781 781 782 784 787 787 786 786 786 788 790 791 792 792 789 781 777 777 775 777 780 782 785 786 787 789 790 792 793 796 797 798 800 801 802 803 805 806 806 807 809 811 812 814 816 818 819 820 821 823 824 825 826 827 829 830 831 832 833 834 835 836 837 838 839 839 839 840 840 842 844 845 845 846 847 848 849 850 852 854 854 855 857 859 859 860 860 861 862 863 864 865 865
781 781 780 780 782 780 781 785 788 789 787 788 788 790 790 789 791 792 784 778 777 776 778 779 781 785 786 787 788 788 790 792 793 796 797 798 799 800 801 802 803 804 805 806 808 809 811 813 815 816 818 819 821 822 823 824 826 826 828 828 829 831 832 833 834 835 836 836 837 838 839 840 841 843 843 843 844 844 845 846 847 849 851 852 853 853 855 857 858 859 859 860 861 862 863 864 865
778 778 779 780 783 781 780 785 788 790 787 787 790 792 791 788 794 794 781 776 777 778 782 782 783 787 787 788 788 788 790 791 792 795 796 798 799 799 800 800 801 803 804 805 806 808 809 811 813 815 816 818 820 821 822 824 825 826 827 828 829 830 830 831 833 833 835 835 836 837 838 839 841 841 842 842 842 843 844 845 846 847 849 851 851 852 854 856 856 857 858 859 860 861 862 863 864
775 778 782 783 784 783 783 785 787 789 788 787 789 792 793 793 796 792 780 777 777 781 785 784 785 788 788 789 788 789 790 791 792 794 795 796 796 797 798 798 800 802 803 803 805 806 808 809 811 813 815 817 818 819 821 822 823 825 826 827 828 828 829 830 831 832 833 833 834 835 836 837 839 839 840 841 841 842 842 843 845 846 847 849 850 851 853 854 854 856 857 858 859 860 861 862 863
777 779 787 789 786 787 786 785 787 789 789 786 788 797 799 797 793 784 779 779 778 783 786 786 787 788 789 789 789 790 790 791 792 792 792 793 794 795 796 797 798 799 801 802 804 805 806 807 809 811 813 815 816 817 819 821 822 823 824 825 826 827 828 828 829 830 831 831 831 832 833 835 836 837 838 839 840 841 842 843 844 844 846 847 848 850 851 852 853 855 856 858 859 860 860 861 862
781 784 790 796 797 795 789 787 788 789 790 784 791 808 803 791 787 782 780 780 781 786 788 788 788 788 790 790 790 791 790 790 790 790 791 792 793 794 794 796 797 798 800 802 803 804 805 807 808 810 811 813 814 816 817 819 820 821 823 824 825 826 826 827 827 828 829 829 829 830 832 833 834 836 837 839 839 840 841 842 843 843 844 846 847 849 850 851 853 854 856 857 858 859 860 861 861
788 792 796 805 811 803 789 789 791 790 792 783 792 813 801 783 784 783 780 779 782 788 789 789 789 789 790 790 791 791 789 789 789 790 791 792 793 793 794 795 796 798 799 800 801 803 805 806 807 809 810 812 813 815 816 817 819 820 821 822 823 824 824 825 825 826 827 827 828 829 830 832 833 834 836 837 838 839 840 841 842 842 843 845 846 848 850 851 852 854 855 856 857 858 859 860 861
796 802 807 812 814 806 792 787 790 791 791 786 794 811 801 786 785 783 780 779 782 787 789 788 789 790 790 790 791 791 789 789 789 790 790 791 792 793 794 795 796 797 798 799 801 803 805 806 807 808 810 811 812 814 815 816 818 819 820 821 821 822 822 823 824 824 825 826 826 827 829 830 831 833 834 836 837 838 839 840 841 842 843 844 846 848 849 851 852 853 855 856 857 858 858 859 860
803 807 812 813 812 813 802 790 789 788 789 790 795 805 798 789 787 783 781 781 782 787 788 788 789 789 789 790 790 790 790 789 789 789 789 790 791 792 793 794 795 796 798 799 801 803 804 805 807 808 809 811 812 813 815 817 818 819 820 820 820 821 822 822 822 823 823 824 824 825 827 828 829 831 833 834 835 836 838 839 840 841 842 844 845 847 848 850 852 853 854 855 856 857 858 859 859
810 810 811 811 811 815 809 796 791 788 791 795 797 801 795 788 788 787 784 783 785 787 788 788 789 789 789 789 790 789 790 789 787 786 787 788 789 790 791 793 795 796 798 799 801 802 803 805 806 808 809 810 811 813 814 816 818 819 820 820 820 821 822 821 822 822 822 823 823 824 825 827 828 829 831 833 833 835 836 838 839 841 842 843 845 846 848 849 851 853 854 855 856 857 857 858 859
812 812 812 813 811 812 810 801 795 793 795 797 799 802 794 788 789 789 786 785 786 787 787 787 788 788 788 788 789 789 789 787 784 784 786 787 788 789 790 792 793 795 797 798 800 801 802 804 805 807 808 809 811 812 813 815 817 818 819 819 820 821 821 821 821 821 821 821 822 823 824 825 827 827 829 831 832 834 835 837 839 840 842 843 844 846 847 849 851 852 853 854 855 856 857 857 858
809 810 812 815 812 809 805 798 793 793 799 801 800 799 793 790 791 790 787 786 786 786 785 786 787 787 788 788 788 788 788 784 781 783 785 786 787 789 790 791 792 793 795 797 798 800 801 802 804 805 807 808 809 811 813 814 815 817 818 818 818 820 820 820 820 820 820 821 821 822 823 823 825 826 827 829 831 832 834 836 838 839 841 842 843 845 846 848 850 851 853 854 855 855 856 857 857
806 809 811 813 815 808 797 793 791 790 798 800 797 797 795 793 791 789 788 787 788 787 785 786 785 786 786 787 787 786 785 782 780 783 784 785 786 788 789 791 792 793 793 795 796 797 799 800 802 803 804 806 808 809 811 812 813 815 816 815 816 817 818 819 819 819 819 820 820 821 822 822 824 825 826 827 830 831 833 835 837 838 840 841 843 844 846 847 849 851 852 854 854 855 855 856 857
804 809 812 813 815 807 792 792 794 790 796 798 797 800 797 792 790 788 788 789 787 784 783 784 782 784 785 785 786 784 783 781 780 782 782 784 785 786 788 789 790 791 791 793 793 795 797 798 799 801 803 804 806 807 809 810 811 812 813 813 814 815 816 816 817 817 818 819 819 820 821 822 823 824 825 826 828 830 832 834 835 837 839 841 842 843 845 846 848 850 851 853 854 854 855 855 857
805 810 814 812 809 804 793 791 795 792 796 798 797 798 794 789 788 788 789 786 781 778 778 780 780 783 784 783 784 783 783 782 781 781 781 782 783 784 785 786 787 788 789 790 791 793 794 796 797 799 800 802 804 806 807 809 810 811 812 813 814 814 814 815 816 817 817 818 819 820 821 822 822 823 824 825 827 829 830 833 834 836 838 840 841 843 844 845 847 849 850 852 853 854 854 855 856
807 810 813 808 804 804 798 795 797 794 796 796 795 796 793 789 787 786 788 784 780 778 777 778 779 780 780 780 780 781 782 782 781 781 780 780 781 782 782 783 784 785 787 787 789 791 792 793 795 796 799 800 803 804 806 808 809 811 813 813 814 815 815 815 816 817 817 818 819 819 820 821 822 823 824 825 826 828 829 831 833 835 837 839 840 842 843 844 846 848 849 851 852 853 853 854 855
805 805 807 802 797 798 797 797 799 797 797 795 796 801 797 791 790 788 786 785 782 779 778 778 777 776 776 776 776 777 777 778 779 779 779 779 779 779 780 781 782 783 784 785 786 788 790 792 793 795 797 799 801 803 805 807 809 811 812 814 815 815 815 816 816 816 817 818 818 819 820 821 822 823 824 825 826 827 829 830 832 834 836 838 839 840 842 843 845 847 848 849 851 852 852 853 854
804 799 795 791 788 791 794 798 800 804 806 797 799 812 808 794 794 794 789 787 784 781 780 778 776 775 775 775 773 773 774 774 775 775 776 776 776 777 778 778 780 780 781 783 785 787 789 791 793 794 797 798 801 802 804 806 808 809 811 812 813 814 815 815 815 815 816 817 817 818 820 821 822 823 824 825 825 827 828 829 831 833 835 836 838 839 841 842 844 845 847 848 849 851 852 852 853
806 792 783 785 788 791 795 797 799 807 811 802 800 814 815 800 793 795 794 790 786 783 781 778 775 775 774 773 770 770 773 773 773 772 772 773 773 774 775 775 777 777 779 782 784 787 788 791 793 794 796 798 800 802 803 805 806 808 809 810 811 812 813 813 814 815 816 817 817 818 819 820 821 822 823 824 825 826 828 829 830 832 833 835 836 838 839 841 842 844 846 847 848 850 851 851 852
800 785 781 786 788 790 792 793 798 804 806 805 802 806 815 811 797 795 796 792 787 784 782 778 774 772 772 772 769 768 770 770 771 771 770 770 770 771 772 772 774 775 778 781 783 786 788 790 792 794 797 799 801 802 802 804 805 806 808 809 811 811 812 813 814 815 815 816 817 818 819 819 820 821 823 824 825 826 827 828 830 831 832 834 835 837 838 840 841 843 844 846 847 848 849 850 851
788 779 783 787 786 788 789 791 798 803 805 809 807 805 817 817 799 795 797 793 790 786 781 777 772 770 769 770 768 766 767 768 768 768 767 767 768 768 770 771 773 775 777 779 781 784 787 789 792 794 797 799 801 803 803 803 803 804 806 808 809 810 811 813 814 815 815 815 816 817 818 819 820 821 822 823 825 826 827 828 829 830 832 833 834 836 837 839 840 841 843 844 846 847 848 849 850
779 778 786 786 788 791 791 794 796 802 810 811 807 805 815 818 800 796 800 795 791 785 779 776 771 768 768 768 766 765 766 766 766 766 765 765 766 768 770 772 774 776 777 779 781 784 786 789 791 792 793 793 796 800 801 802 802 803 804 806 807 809 810 812 813 814 815 814 814 815 817 818 819 820 821 823 824 825 827 828 829 830 831 832 834 835 836 838 839 840 842 843 844 845 847 847 848
776 780 785 785 789 792 796 800 798 809 819 811 806 806 811 817 804 793 796 791 784 781 778 775 769 767 767 767 766 765 765 766 766 765 765 765 767 768 770 772 773 775 777 779 781 783 785 788 789 789 790 790 793 796 798 799 800 801 803 804 806 808 809 810 812 813 814 814 813 814 815 817 818 819 820 822 823 825 826 828 829 830 831 832 833 834 835 837 838 839 840 842 843 844 845 846 847
780 783 786 790 797 798 801 804 804 820 826 812 812 811 809 817 806 788 787 784 780 780 775 772 769 765 764 765 767 766 766 766 765 766 766 766 767 768 769 771 773 774 776 778 780 782 784 786 787 787 788 789 791 794 795 797 799 800 802 803 804 806 807 809 810 811 812 813 812 812 813 815 817 818 819 820 822 824 825 827 828 829 830 831 832 833 834 836 837 838 839 840 842 843 844 845 846
783 786 791 804 816 817 817 821 823 828 822 812 815 812 810 812 797 785 785 780 778 778 774 772 771 767 765 766 768 767 767 766 765 766 766 767 767 768 769 770 772 774 775 777 779 781 783 784 785 786 786 788 790 792 794 796 798 799 800 802 803 805 806 807 808 809 810 811 812 811 812 813 816 817 818 819 820 822 824 826 827 828 830 831 832 833 834 835 836 837 838 839 840 841 843 844 845
786 789 795 808 824 833 837 838 838 832 818 812 812 811 812 808 791 785 785 779 778 777 774 774 772 770 769 768 769 768 767 766 766 766 766 767 768 768 769 770 772 773 775 776 778 780 782 783 784 784 785 787 789 790 793 795 796 798 799 801 802 803 805 806 807 808 809 810 810 810 811 812 813 815 816 817 819 821 822 824 826 827 829 830 831 832 833 834 835 836 837 838 839 840 841 842 843
788 790 792 801 810 822 831 829 828 827 821 815 810 810 815 809 792 784 781 778 778 776 772 771 770 770 769 768 768 768 767 766 766 766 767 768 768 768 769 771 772 773 774 775 777 778 780 781 782 783 784 785 787 788 790 792 794 796 798 800 801 802 803 804 806 807 808 809 809 810 810 811 812 813 815 816 818 819 821 823 825 826 828 829 830 831 832 833 834 835 836 837 838 839 840 841 842
792 790 791 797 796 800 818 825 822 822 823 820 815 812 810 801 787 780 779 778 777 774 772 771 770 770 769 768 768 768 767 767 766 766 767 768 767 768 769 771 772 772 773 774 776 777 778 779 780 781 782 784 786 787 788 790 792 794 796 798 800 801 802 803 804 806 807 808 808 809 809 810 811 812 814 815 816 818 819 821 823 825 826 828 829 830 831 832 833 834 835 836 837 838 839 839 840
791 791 792 794 787 789 810 826 826 825 826 826 824 816 805 797 789 781 779 778 776 775 774 772 773 771 771 770 769 768 768 767 766 766 767 767 767 768 769 770 771 772 773 774 774 776 777 778 779 780 781 783 784 786 787 790 792 793 795 796 798 799 800 801 803 804 805 806 807 807 808 809 810 811 813 814 815 816 818 820 821 823 825 826 828 829 830 831 832 833 834 835 835 836 837 838 838
786 794 791 788 789 790 799 816 828 833 834 829 827 824 816 811 802 787 781 782 779 778 776 775 774 773 772 771 769 769 769 768 767 765 767 768 767 768 769 770 771 771 772 773 774 776 777 778 779 779 780 782 784 785 786 789 791 792 793 795 796 798 799 800 801 803 805 805 805 806 807 808 809 810 811 813 814 815 817 818 820 822 823 825 826 828 829 830 831 832 833 834 834 835 835 836 836
777 786 783 787 800 802 801 813 826 834 842 837 829 829 825 816 804 790 786 786 781 779 779 777 774 772 773 771 769 770 768 768 767 766 768 769 769 770 770 770 771 771 772 773 774 776 777 778 779 779 781 784 785 786 786 788 789 791 792 793 795 796 797 799 800 802 804 804 804 804 805 806 807 809 810 811 813 814 816 817 819 820 822 823 825 826 828 830 831 832 832 833 833 834 834 834 835
775 779 783 788 797 803 805 812 816 823 841 846 834 830 821 806 796 789 786 785 781 780 779 776 774 772 772 772 771 771 769 769 769 769 769 769 770 771 770 771 771 771 773 774 775 776 777 778 779 780 782 784 785 786 786 787 788 790 791 792 794 795 796 797 798 800 801 802 802 803 804 806 806 807 808 809 810 812 813 815 817 819 821 822 824 825 827 829 830 831 831 832 832 832 832 832 833
789 791 797 796 795 800 804 810 814 815 830 841 839 836 816 792 786 784 779 778 777 776 776 774 773 772 772 773 773 772 772 771 771 771 770 769 770 771 771 772 772 772 774 774 775 776 776 778 779 779 781 783 784 785 785 786 787 788 790 791 792 793 794 795 796 797 799 799 801 803 804 805 805 805 807 808 809 810 811 813 815 818 820 821 822 824 825 827 829 830 830 831 831 831 831 831 831
795 798 803 803 800 804 811 819 819 814 820 829 834 832 808 785 785 784 777 777 775 776 776 773 772 772 771 772 773 773 774 773 773 771 770 769 769 771 772 772 773 773 774 775 775 776 777 778 779 779 781 782 782 783 783 785 786 787 788 789 790 791 792 793 794 795 796 798 800 803 802 802 802 803 805 806 807 808 809 810 812 814 817 819 821 821 823 824 826 828 829 830 830 830 830 830 830